sat.trackr.live / text

‹ back to catalog

YAOGAN-50 02

NORAD 68196 · 2026-051A

PAYLOAD ACTIVE UNKNOWN

§ Identity

Operator
Country
PRC
Launch date
2026-03-15
Launch site
TAISC
Launch vehicle
Mass (kg)
RCS (m²)

External: N2YO · Heavens-Above · Gunter

§ Orbital elements

Epoch: 2026-05-25T00:56:47.753376Z

Period
104.10 min
Inclination
141.9852°
Eccentricity
0.0001090
Mean motion
13.83263222 rev/d
Perigee alt
951.5 km
Apogee alt
953.1 km
Semi-major
7,330.5 km
B*
1.0697e-4
RAAN
215.8035°
Arg perigee
289.5241°
Mean anomaly
70.5361°
Rev number
978

§ Raw data

YAOGAN-50 021 68196U 26051A   26145.03944159  .00000305  00000+0  10697-3 0  99902 68196 141.9852 215.8035 0001090 289.5241  70.5361 13.83263222  9785

JSON: /api/v1/satellites/68196 · /tle

For live sub-satellite position, see the globe view (requires WebGL).

§ Visibility from observer

Set your observer location to see the next 7 days of passes ≥ 10°. The values pass through the URL so the page stays shareable.

No JS? Fill the form by hand. The geolocation button needs JavaScript.